Time,TemperatureF,DewpointF,PressureIn,WindDirection,WindDirectionDegrees,WindSpeedMPH,WindSpeedGustMPH,Humidity,HourlyPrecipIn,Conditions,Clouds,dailyrainin,SoftwareType,DateUTC
2013-02-11 00:00:00,40.8,38.7,30.23,NNE,28,0.0,0.0,92,0.00,,CLR,0.20,VWS V14.01,2013-02-11 05:00:00,
2013-02-11 00:05:00,40.7,38.6,30.23,NNE,28,0.0,0.0,92,0.00,,CLR,0.00,VWS V14.01,2013-02-11 05:05:00,
2013-02-11 00:10:00,40.7,38.6,30.22,NNE,28,0.0,0.0,92,0.00,,CLR,0.00,VWS V14.01,2013-02-11 05:10:00,
2013-02-11 00:15:00,40.7,38.6,30.22,NNE,28,0.0,0.0,92,0.00,,CLR,0.00,VWS V14.01,2013-02-11 05:15:00,
2013-02-11 00:20:00,40.8,38.7,30.22,NNE,29,0.0,0.0,92,0.00,,CLR,0.00,VWS V14.01,2013-02-11 05:20:00,
2013-02-11 00:25:00,40.8,38.7,30.22,NNE,28,0.0,0.0,92,0.00,,CLR,0.00,VWS V14.01,2013-02-11 05:25:00,
2013-02-11 00:30:00,40.8,38.7,30.22,NNE,27,0.0,0.0,92,0.00,,CLR,0.00,VWS V14.01,2013-02-11 05:30:00,
2013-02-11 00:35:00,40.8,38.7,30.23,NNE,27,0.0,0.0,92,0.00,,CLR,0.00,VWS V14.01,2013-02-11 05:35:00,
2013-02-11 00:40:00,40.8,38.7,30.23,West,259,0.0,1.0,92,0.00,,CLR,0.00,VWS V14.01,2013-02-11 05:40:00,
2013-02-11 00:45:00,40.7,38.6,30.23,WNW,293,0.0,0.0,92,0.00,,CLR,0.00,VWS V14.01,2013-02-11 05:45:00,
2013-02-11 00:50:00,40.7,38.6,30.23,West,278,0.0,0.0,92,0.00,,CLR,0.00,VWS V14.01,2013-02-11 05:50:00,
2013-02-11 00:55:00,40.7,38.6,30.22,West,280,0.0,0.0,92,0.00,,CLR,0.00,VWS V14.01,2013-02-11 05:55:00,
2013-02-11 01:00:00,40.8,38.7,30.22,West,278,0.0,0.0,92,0.00,,CLR,0.00,VWS V14.01,2013-02-11 06:00:00,
2013-02-11 01:05:00,40.9,38.8,30.22,SW,228,0.0,0.0,92,0.00,,CLR,0.00,VWS V14.01,2013-02-11 06:05:00,
2013-02-11 01:10:00,40.9,38.8,30.22,SW,228,0.0,0.0,92,0.00,,CLR,0.00,VWS V14.01,2013-02-11 06:10:00,
2013-02-11 01:15:00,40.9,38.8,30.21,SW,229,0.0,0.0,92,0.00,,CLR,0.00,VWS V14.01,2013-02-11 06:15:00,
2013-02-11 01:20:00,40.9,38.8,30.21,SW,228,0.0,0.0,92,0.00,,CLR,0.00,VWS V14.01,2013-02-11 06:20:00,
2013-02-11 01:25:00,40.9,38.8,30.22,SW,228,0.0,0.0,92,0.00,,CLR,0.00,VWS V14.01,2013-02-11 06:25:00,
2013-02-11 01:30:00,41.0,38.9,30.22,SSW,212,1.0,1.0,92,0.00,,CLR,0.00,VWS V14.01,2013-02-11 06:30:00,
2013-02-11 01:35:00,40.9,38.8,30.21,SSW,212,0.0,1.0,92,0.00,,CLR,0.00,VWS V14.01,2013-02-11 06:35:00,
2013-02-11 01:40:00,40.9,38.8,30.21,SSW,200,0.0,0.0,92,0.00,,CLR,0.00,VWS V14.01,2013-02-11 06:40:00,
2013-02-11 01:45:00,41.0,38.9,30.21,West,263,0.0,1.0,92,0.00,,CLR,0.00,VWS V14.01,2013-02-11 06:45:00,
2013-02-11 01:50:00,41.0,38.9,30.21,West,260,0.0,0.0,92,0.00,,CLR,0.00,VWS V14.01,2013-02-11 06:50:00,
2013-02-11 01:55:00,41.0,38.9,30.21,West,260,0.0,0.0,92,0.00,,CLR,0.00,VWS V14.01,2013-02-11 06:55:00,
2013-02-11 02:00:00,41.0,38.9,30.19,South,180,1.0,1.0,92,0.00,,CLR,0.00,VWS V14.01,2013-02-11 07:00:00,
2013-02-11 02:05:00,41.1,39.0,30.19,South,180,0.0,0.0,92,0.00,,CLR,0.00,VWS V14.01,2013-02-11 07:05:00,
2013-02-11 02:10:00,41.1,39.0,30.19,South,180,0.0,0.0,92,0.00,,CLR,0.00,VWS V14.01,2013-02-11 07:10:00,
2013-02-11 02:15:00,41.1,39.0,30.18,South,180,0.0,0.0,92,0.00,,CLR,0.00,VWS V14.01,2013-02-11 07:15:00,
2013-02-11 02:20:00,41.1,39.0,30.19,South,180,0.0,0.0,92,0.00,,CLR,0.00,VWS V14.01,2013-02-11 07:20:00,
2013-02-11 02:25:00,41.2,39.1,30.19,South,180,0.0,0.0,92,0.00,,CLR,0.00,VWS V14.01,2013-02-11 07:25:00,
2013-02-11 02:30:00,41.2,39.1,30.18,SSW,197,0.0,0.0,92,0.00,,CLR,0.00,VWS V14.01,2013-02-11 07:30:00,
2013-02-11 02:35:00,41.3,39.2,30.18,SW,219,1.0,1.0,92,0.00,,CLR,0.00,VWS V14.01,2013-02-11 07:35:00,
2013-02-11 02:40:00,41.4,39.2,30.17,SSE,157,0.0,0.0,92,0.00,,CLR,0.00,VWS V14.01,2013-02-11 07:40:00,
2013-02-11 02:45:00,41.4,39.2,30.17,SSE,156,0.0,0.0,92,0.00,,CLR,0.00,VWS V14.01,2013-02-11 07:45:00,
2013-02-11 02:50:00,41.5,39.3,30.17,SSE,156,0.0,0.0,92,0.00,,CLR,0.00,VWS V14.01,2013-02-11 07:50:00,
2013-02-11 02:55:00,41.6,39.5,30.17,SSE,159,1.0,1.0,92,0.00,,CLR,0.00,VWS V14.01,2013-02-11 07:55:00,
2013-02-11 03:00:00,41.7,39.5,30.16,SW,215,0.0,0.0,92,0.00,,CLR,0.00,VWS V14.01,2013-02-11 08:00:00,
2013-02-11 03:05:00,41.8,39.7,30.17,SSE,152,0.0,2.0,92,0.00,,CLR,0.00,VWS V14.01,2013-02-11 08:05:00,
2013-02-11 03:10:00,41.8,39.7,30.16,West,276,0.0,2.0,92,0.01,,CLR,0.01,VWS V14.01,2013-02-11 08:10:00,
2013-02-11 03:15:00,41.9,39.8,30.16,SSW,203,0.0,0.0,92,0.01,,CLR,0.01,VWS V14.01,2013-02-11 08:15:00,
2013-02-11 03:20:00,41.9,39.8,30.15,SSW,207,0.0,0.0,92,0.02,,CLR,0.02,VWS V14.01,2013-02-11 08:20:00,
2013-02-11 03:25:00,42.0,39.8,30.15,SSW,198,0.0,0.0,92,0.02,,CLR,0.02,VWS V14.01,2013-02-11 08:25:00,
2013-02-11 03:30:00,42.0,39.8,30.14,SSW,198,0.0,0.0,92,0.02,,CLR,0.02,VWS V14.01,2013-02-11 08:30:00,
2013-02-11 03:35:00,42.1,40.2,30.14,SSE,152,0.0,0.0,93,0.02,,CLR,0.02,VWS V14.01,2013-02-11 08:35:00,
2013-02-11 03:40:00,42.2,40.3,30.15,WNW,285,0.0,2.0,93,0.03,,CLR,0.03,VWS V14.01,2013-02-11 08:40:00,
2013-02-11 03:45:00,42.3,40.4,30.14,West,276,0.0,0.0,93,0.03,,CLR,0.03,VWS V14.01,2013-02-11 08:45:00,
2013-02-11 03:50:00,42.4,40.5,30.14,WNW,282,0.0,0.0,93,0.03,,CLR,0.03,VWS V14.01,2013-02-11 08:50:00,
2013-02-11 03:55:00,42.5,40.6,30.14,WNW,283,0.0,1.0,93,0.03,,CLR,0.03,VWS V14.01,2013-02-11 08:55:00,
2013-02-11 04:00:00,42.5,40.6,30.14,WNW,283,0.0,0.0,93,0.04,,CLR,0.04,VWS V14.01,2013-02-11 09:00:00,
2013-02-11 04:05:00,42.7,40.8,30.13,SSE,148,0.0,1.0,93,0.04,,CLR,0.04,VWS V14.01,2013-02-11 09:05:00,
2013-02-11 04:10:00,42.8,40.9,30.13,SSE,156,0.0,0.0,93,0.03,,CLR,0.04,VWS V14.01,2013-02-11 09:10:00,
2013-02-11 04:15:00,42.9,41.0,30.14,SSW,211,0.0,1.0,93,0.03,,CLR,0.04,VWS V14.01,2013-02-11 09:15:00,
2013-02-11 04:20:00,42.9,41.0,30.14,SSW,212,0.0,0.0,93,0.03,,CLR,0.05,VWS V14.01,2013-02-11 09:20:00,
2013-02-11 04:25:00,43.0,41.1,30.14,SSW,211,0.0,0.0,93,0.03,,CLR,0.05,VWS V14.01,2013-02-11 09:25:00,
2013-02-11 04:30:00,43.0,41.1,30.14,SSW,212,0.0,0.0,93,0.03,,CLR,0.05,VWS V14.01,2013-02-11 09:30:00,
2013-02-11 04:35:00,43.1,41.2,30.14,SSW,211,0.0,0.0,93,0.03,,CLR,0.05,VWS V14.01,2013-02-11 09:35:00,
2013-02-11 04:40:00,43.2,41.3,30.14,SSW,211,0.0,0.0,93,0.03,,CLR,0.06,VWS V14.01,2013-02-11 09:40:00,
2013-02-11 04:45:00,43.2,41.3,30.14,SSW,211,0.0,0.0,93,0.03,,CLR,0.06,VWS V14.01,2013-02-11 09:45:00,
2013-02-11 04:50:00,43.2,41.3,30.13,SSW,212,0.0,0.0,93,0.03,,CLR,0.06,VWS V14.01,2013-02-11 09:50:00,
2013-02-11 04:55:00,43.3,41.4,30.13,SSW,211,0.0,0.0,93,0.03,,CLR,0.06,VWS V14.01,2013-02-11 09:55:00,
2013-02-11 05:00:00,43.4,41.5,30.13,SSW,212,0.0,0.0,93,0.02,,CLR,0.06,VWS V14.01,2013-02-11 10:00:00,
2013-02-11 05:05:00,43.4,41.5,30.14,SSW,211,0.0,0.0,93,0.02,,CLR,0.06,VWS V14.01,2013-02-11 10:05:00,
2013-02-11 05:10:00,43.5,41.6,30.13,SSW,212,0.0,0.0,93,0.03,,CLR,0.07,VWS V14.01,2013-02-11 10:10:00,
2013-02-11 05:15:00,43.5,41.6,30.14,SSW,211,0.0,0.0,93,0.03,,CLR,0.07,VWS V14.01,2013-02-11 10:15:00,
2013-02-11 05:20:00,43.6,41.7,30.14,SSW,212,0.0,0.0,93,0.02,,CLR,0.07,VWS V14.01,2013-02-11 10:20:00,
2013-02-11 05:25:00,43.7,41.8,30.15,SSW,211,0.0,1.0,93,0.02,,CLR,0.07,VWS V14.01,2013-02-11 10:25:00,
2013-02-11 05:30:00,43.6,41.7,30.15,SSW,211,0.0,0.0,93,0.02,,CLR,0.07,VWS V14.01,2013-02-11 10:30:00,
2013-02-11 05:35:00,43.6,41.7,30.15,SSW,211,0.0,0.0,93,0.02,,CLR,0.07,VWS V14.01,2013-02-11 10:35:00,
2013-02-11 05:40:00,43.6,41.7,30.15,SSW,211,0.0,0.0,93,0.02,,CLR,0.08,VWS V14.01,2013-02-11 10:40:00,
2013-02-11 05:45:00,43.7,41.8,30.15,SSW,211,0.0,0.0,93,0.02,,CLR,0.08,VWS V14.01,2013-02-11 10:45:00,
2013-02-11 05:50:00,43.7,41.8,30.15,SSW,211,0.0,0.0,93,0.02,,CLR,0.08,VWS V14.01,2013-02-11 10:50:00,
2013-02-11 05:55:00,43.8,41.9,30.15,SSW,211,0.0,0.0,93,0.02,,CLR,0.08,VWS V14.01,2013-02-11 10:55:00,
2013-02-11 06:00:00,43.9,42.0,30.14,SSW,211,0.0,0.0,93,0.02,,CLR,0.08,VWS V14.01,2013-02-11 11:00:00,
2013-02-11 06:05:00,43.9,42.0,30.14,SSW,211,0.0,0.0,93,0.03,,CLR,0.09,VWS V14.01,2013-02-11 11:05:00,
2013-02-11 06:10:00,43.9,42.0,30.13,SSW,211,0.0,0.0,93,0.02,,CLR,0.09,VWS V14.01,2013-02-11 11:10:00,
2013-02-11 06:15:00,44.0,42.1,30.13,SSW,211,0.0,0.0,93,0.02,,CLR,0.09,VWS V14.01,2013-02-11 11:15:00,
2013-02-11 06:20:00,44.0,42.1,30.13,SSW,211,0.0,0.0,93,0.02,,CLR,0.09,VWS V14.01,2013-02-11 11:20:00,
2013-02-11 06:25:00,44.0,42.1,30.12,SSE,158,0.0,0.0,93,0.02,,CLR,0.09,VWS V14.01,2013-02-11 11:25:00,
2013-02-11 06:30:00,44.0,42.1,30.12,SSE,158,0.0,0.0,93,0.02,,CLR,0.09,VWS V14.01,2013-02-11 11:30:00,
2013-02-11 06:35:00,44.0,42.1,30.11,SSE,158,0.0,0.0,93,0.02,,CLR,0.09,VWS V14.01,2013-02-11 11:35:00,
2013-02-11 06:40:00,43.9,42.0,30.11,SSE,158,0.0,0.0,93,0.01,,CLR,0.09,VWS V14.01,2013-02-11 11:40:00,
2013-02-11 06:45:00,43.9,42.0,30.11,SSE,158,0.0,0.0,93,0.01,,CLR,0.09,VWS V14.01,2013-02-11 11:45:00,
2013-02-11 06:50:00,43.9,42.0,30.10,SE,142,0.0,0.0,93,0.02,,CLR,0.10,VWS V14.01,2013-02-11 11:50:00,
2013-02-11 06:55:00,43.9,42.0,30.10,SE,142,0.0,0.0,93,0.02,,CLR,0.10,VWS V14.01,2013-02-11 11:55:00,
2013-02-11 07:00:00,43.9,42.0,30.10,SE,142,0.0,0.0,93,0.02,,CLR,0.10,VWS V14.01,2013-02-11 12:00:00,
2013-02-11 07:05:00,43.9,42.0,30.10,SE,141,0.0,0.0,93,0.01,,CLR,0.10,VWS V14.01,2013-02-11 12:05:00,
2013-02-11 07:10:00,44.0,42.1,30.10,SE,142,0.0,0.0,93,0.01,,CLR,0.10,VWS V14.01,2013-02-11 12:10:00,
2013-02-11 07:15:00,44.0,42.1,30.10,SE,142,0.0,0.0,93,0.01,,CLR,0.10,VWS V14.01,2013-02-11 12:15:00,
2013-02-11 07:20:00,44.1,42.2,30.10,SE,141,0.0,0.0,93,0.01,,CLR,0.10,VWS V14.01,2013-02-11 12:20:00,
2013-02-11 07:25:00,44.1,42.2,30.11,SE,142,0.0,0.0,93,0.01,,CLR,0.10,VWS V14.01,2013-02-11 12:25:00,
2013-02-11 07:30:00,44.1,42.2,30.11,SE,141,0.0,0.0,93,0.01,,CLR,0.10,VWS V14.01,2013-02-11 12:30:00,
2013-02-11 07:35:00,44.2,42.3,30.11,SE,142,0.0,0.0,93,0.01,,CLR,0.10,VWS V14.01,2013-02-11 12:35:00,
2013-02-11 07:40:00,44.3,42.4,30.11,SE,142,0.0,0.0,93,0.01,,CLR,0.10,VWS V14.01,2013-02-11 12:40:00,
2013-02-11 07:45:00,44.3,42.4,30.11,SE,142,0.0,0.0,93,0.01,,CLR,0.10,VWS V14.01,2013-02-11 12:45:00,
2013-02-11 07:50:00,44.4,42.5,30.10,SE,142,0.0,0.0,93,0.00,,CLR,0.10,VWS V14.01,2013-02-11 12:50:00,
2013-02-11 07:55:00,44.4,42.5,30.10,SE,142,0.0,0.0,93,0.00,,CLR,0.10,VWS V14.01,2013-02-11 12:55:00,
2013-02-11 08:00:00,44.5,42.6,30.11,SE,142,1.0,1.0,93,0.00,,CLR,0.10,VWS V14.01,2013-02-11 13:00:00,
2013-02-11 08:05:00,44.5,42.6,30.11,SE,142,0.0,0.0,93,0.00,,CLR,0.10,VWS V14.01,2013-02-11 13:05:00,
2013-02-11 08:10:00,44.7,42.8,30.11,SE,142,0.0,0.0,93,0.00,,CLR,0.10,VWS V14.01,2013-02-11 13:10:00,
2013-02-11 08:15:00,44.8,42.9,30.11,SE,142,0.0,0.0,93,0.00,,CLR,0.10,VWS V14.01,2013-02-11 13:15:00,
2013-02-11 08:20:00,44.9,43.0,30.10,SE,142,1.0,1.0,93,0.00,,CLR,0.10,VWS V14.01,2013-02-11 13:20:00,
2013-02-11 08:25:00,45.0,43.1,30.10,SE,142,0.0,0.0,93,0.00,,CLR,0.10,VWS V14.01,2013-02-11 13:25:00,
2013-02-11 08:30:00,45.1,43.2,30.10,SE,142,0.0,0.0,93,0.00,,CLR,0.10,VWS V14.01,2013-02-11 13:30:00,
2013-02-11 08:35:00,45.3,43.4,30.11,SE,142,0.0,0.0,93,0.00,,CLR,0.10,VWS V14.01,2013-02-11 13:35:00,
2013-02-11 08:40:00,45.4,43.5,30.11,SE,141,0.0,0.0,93,0.00,,CLR,0.10,VWS V14.01,2013-02-11 13:40:00,
2013-02-11 08:45:00,45.5,43.9,30.11,SE,142,0.0,0.0,94,0.00,,CLR,0.10,VWS V14.01,2013-02-11 13:45:00,
2013-02-11 08:50:00,45.7,44.1,30.12,SE,141,0.0,0.0,94,0.00,,CLR,0.10,VWS V14.01,2013-02-11 13:50:00,
2013-02-11 08:55:00,45.8,44.2,30.12,SE,142,0.0,0.0,94,0.00,,CLR,0.10,VWS V14.01,2013-02-11 13:55:00,
2013-02-11 09:00:00,45.8,44.2,30.12,SE,142,0.0,0.0,94,0.00,,CLR,0.10,VWS V14.01,2013-02-11 14:00:00,
2013-02-11 09:05:00,45.9,44.3,30.11,SE,142,0.0,0.0,94,0.00,,CLR,0.10,VWS V14.01,2013-02-11 14:05:00,
2013-02-11 09:10:00,46.1,44.5,30.10,SE,139,1.0,1.0,94,0.00,,CLR,0.10,VWS V14.01,2013-02-11 14:10:00,
2013-02-11 09:15:00,46.2,44.6,30.10,SE,143,0.0,0.0,94,0.00,,CLR,0.10,VWS V14.01,2013-02-11 14:15:00,
2013-02-11 09:20:00,46.2,44.6,30.11,SE,143,0.0,0.0,94,0.00,,CLR,0.10,VWS V14.01,2013-02-11 14:20:00,
2013-02-11 09:25:00,46.4,44.8,30.10,SE,143,0.0,0.0,94,0.00,,CLR,0.10,VWS V14.01,2013-02-11 14:25:00,
2013-02-11 09:30:00,46.6,45.0,30.10,SE,142,0.0,1.0,94,0.00,,CLR,0.10,VWS V14.01,2013-02-11 14:30:00,
2013-02-11 09:35:00,46.9,45.3,30.10,SSW,193,0.0,0.0,94,0.00,,CLR,0.10,VWS V14.01,2013-02-11 14:35:00,
2013-02-11 09:40:00,46.9,45.3,30.10,SSW,194,0.0,0.0,94,0.00,,CLR,0.10,VWS V14.01,2013-02-11 14:40:00,
2013-02-11 09:45:00,47.1,45.5,30.09,ESE,123,0.0,0.0,94,0.00,,CLR,0.10,VWS V14.01,2013-02-11 14:45:00,
2013-02-11 09:50:00,47.4,45.8,30.09,ESE,122,0.0,0.0,94,0.00,,CLR,0.10,VWS V14.01,2013-02-11 14:50:00,
2013-02-11 09:55:00,47.6,46.0,30.08,ESE,117,0.0,0.0,94,0.00,,CLR,0.10,VWS V14.01,2013-02-11 14:55:00,
2013-02-11 10:00:00,47.8,46.2,30.08,ESE,117,0.0,1.0,94,0.00,,CLR,0.10,VWS V14.01,2013-02-11 15:00:00,
2013-02-11 10:05:00,47.9,46.3,30.08,ESE,117,0.0,0.0,94,0.00,,CLR,0.10,VWS V14.01,2013-02-11 15:05:00,
2013-02-11 10:10:00,48.4,46.8,30.08,ESE,117,0.0,0.0,94,0.00,,CLR,0.10,VWS V14.01,2013-02-11 15:10:00,
2013-02-11 10:15:00,48.6,47.0,30.08,East,96,1.0,2.0,94,0.00,,CLR,0.10,VWS V14.01,2013-02-11 15:15:00,
2013-02-11 10:20:00,48.6,47.0,30.08,East,96,0.0,0.0,94,0.00,,CLR,0.10,VWS V14.01,2013-02-11 15:20:00,
2013-02-11 10:25:00,49.0,47.3,30.09,East,96,0.0,1.0,94,0.00,,CLR,0.10,VWS V14.01,2013-02-11 15:25:00,
2013-02-11 10:30:00,48.9,47.2,30.08,East,96,1.0,1.0,94,0.00,,CLR,0.10,VWS V14.01,2013-02-11 15:30:00,
2013-02-11 10:35:00,49.6,48.0,30.07,East,96,0.0,1.0,94,0.00,,CLR,0.10,VWS V14.01,2013-02-11 15:35:00,
2013-02-11 10:40:00,50.1,48.4,30.08,West,276,1.0,1.0,94,0.00,,CLR,0.10,VWS V14.01,2013-02-11 15:40:00,
2013-02-11 10:45:00,50.2,48.5,30.07,WSW,246,1.0,1.0,94,0.00,,CLR,0.10,VWS V14.01,2013-02-11 15:45:00,
2013-02-11 10:50:00,50.9,49.2,30.08,WSW,247,0.0,1.0,94,0.00,,CLR,0.10,VWS V14.01,2013-02-11 15:50:00,
2013-02-11 10:55:00,51.6,49.9,30.07,ENE,61,1.0,1.0,94,0.00,,CLR,0.10,VWS V14.01,2013-02-11 15:55:00,
2013-02-11 11:00:00,51.8,50.1,30.07,NNW,332,0.0,0.0,94,0.00,,CLR,0.10,VWS V14.01,2013-02-11 16:00:00,
2013-02-11 11:05:00,52.2,50.5,30.07,West,276,0.0,1.0,94,0.00,,CLR,0.10,VWS V14.01,2013-02-11 16:05:00,
2013-02-11 11:10:00,52.2,50.2,30.07,West,278,0.0,1.0,93,0.00,,CLR,0.10,VWS V14.01,2013-02-11 16:10:00,
2013-02-11 11:15:00,52.6,50.6,30.07,SSW,208,0.0,0.0,93,0.00,,CLR,0.10,VWS V14.01,2013-02-11 16:15:00,
2013-02-11 11:21:00,52.8,50.8,30.07,SSW,203,1.0,1.0,93,0.00,,CLR,0.10,VWS V14.01,2013-02-11 16:21:00,
2013-02-11 11:26:00,52.8,50.8,30.08,West,259,1.0,1.0,93,0.00,,CLR,0.10,VWS V14.01,2013-02-11 16:26:00,
2013-02-11 11:31:00,53.1,51.1,30.08,WSW,258,0.0,0.0,93,0.00,,CLR,0.10,VWS V14.01,2013-02-11 16:31:00,
2013-02-11 11:36:00,53.4,51.4,30.08,West,259,0.0,1.0,93,0.00,,CLR,0.10,VWS V14.01,2013-02-11 16:36:00,
2013-02-11 11:41:00,53.6,51.6,30.07,WSW,239,1.0,1.0,93,0.00,,CLR,0.10,VWS V14.01,2013-02-11 16:41:00,
2013-02-11 11:46:00,53.5,51.5,30.06,NE,35,0.0,0.0,93,0.00,,CLR,0.10,VWS V14.01,2013-02-11 16:46:00,
2013-02-11 11:51:00,53.5,51.2,30.07,NE,35,0.0,0.0,92,0.00,,CLR,0.10,VWS V14.01,2013-02-11 16:51:00,
2013-02-11 11:56:00,53.2,50.9,30.08,NE,35,0.0,0.0,92,0.00,,CLR,0.10,VWS V14.01,2013-02-11 16:56:00,
2013-02-11 12:01:00,53.4,51.1,30.08,NE,35,0.0,0.0,92,0.00,,CLR,0.10,VWS V14.01,2013-02-11 17:01:00,
2013-02-11 12:06:00,53.6,51.3,30.07,ESE,122,1.0,1.0,92,0.00,,CLR,0.10,VWS V14.01,2013-02-11 17:06:00,
2013-02-11 12:11:00,53.6,51.3,30.06,SW,226,0.0,0.0,92,0.00,,CLR,0.10,VWS V14.01,2013-02-11 17:11:00,
2013-02-11 12:16:00,53.8,51.5,30.06,SW,226,0.0,0.0,92,0.00,,CLR,0.10,VWS V14.01,2013-02-11 17:16:00,
2013-02-11 12:21:00,53.9,51.6,30.06,SW,226,0.0,0.0,92,0.00,,CLR,0.10,VWS V14.01,2013-02-11 17:21:00,
2013-02-11 12:26:00,54.0,51.7,30.05,SE,127,1.0,1.0,92,0.00,,CLR,0.10,VWS V14.01,2013-02-11 17:26:00,
2013-02-11 12:31:00,53.9,51.6,30.05,ESE,113,1.0,2.0,92,0.00,,CLR,0.10,VWS V14.01,2013-02-11 17:31:00,
2013-02-11 12:36:00,54.0,51.7,30.04,SSE,150,1.0,1.0,92,0.00,,CLR,0.10,VWS V14.01,2013-02-11 17:36:00,
2013-02-11 12:41:00,53.9,51.3,30.03,SE,127,0.0,1.0,91,0.00,,CLR,0.10,VWS V14.01,2013-02-11 17:41:00,
2013-02-11 12:46:00,54.1,51.5,30.02,SE,127,0.0,1.0,91,0.00,,CLR,0.10,VWS V14.01,2013-02-11 17:46:00,
2013-02-11 12:51:00,54.1,51.5,30.02,SE,130,1.0,2.0,91,0.00,,CLR,0.10,VWS V14.01,2013-02-11 17:51:00,
2013-02-11 12:56:00,54.3,51.7,30.02,South,190,1.0,1.0,91,0.00,,CLR,0.10,VWS V14.01,2013-02-11 17:56:00,
2013-02-11 13:01:00,54.5,51.9,30.02,SSW,201,0.0,1.0,91,0.00,,CLR,0.10,VWS V14.01,2013-02-11 18:01:00,
2013-02-11 13:06:00,54.6,51.7,30.01,SSW,204,0.0,1.0,90,0.00,,CLR,0.10,VWS V14.01,2013-02-11 18:06:00,
2013-02-11 13:11:00,54.8,51.9,30.02,SW,221,2.0,3.0,90,0.00,,CLR,0.10,VWS V14.01,2013-02-11 18:11:00,
2013-02-11 13:16:00,54.9,52.0,30.02,SE,132,1.0,1.0,90,0.00,,CLR,0.10,VWS V14.01,2013-02-11 18:16:00,
2013-02-11 13:21:00,55.0,52.1,30.02,NNW,330,1.0,1.0,90,0.00,,CLR,0.10,VWS V14.01,2013-02-11 18:21:00,
2013-02-11 13:26:00,55.1,52.2,30.02,NW,325,0.0,0.0,90,0.00,,CLR,0.10,VWS V14.01,2013-02-11 18:26:00,
2013-02-11 13:31:00,55.3,52.4,30.02,NW,325,0.0,1.0,90,0.00,,CLR,0.10,VWS V14.01,2013-02-11 18:31:00,
2013-02-11 13:36:00,55.4,52.5,30.02,NW,325,1.0,1.0,90,0.00,,CLR,0.10,VWS V14.01,2013-02-11 18:36:00,
2013-02-11 13:41:00,55.4,52.5,30.02,WNW,285,0.0,1.0,90,0.00,,CLR,0.10,VWS V14.01,2013-02-11 18:41:00,
2013-02-11 13:46:00,55.5,52.6,30.03,West,268,2.0,3.0,90,0.00,,CLR,0.10,VWS V14.01,2013-02-11 18:46:00,
2013-02-11 13:51:00,55.3,52.4,30.03,WNW,298,2.0,4.0,90,0.00,,CLR,0.10,VWS V14.01,2013-02-11 18:51:00,
2013-02-11 13:56:00,55.4,52.5,30.04,West,271,0.0,1.0,90,0.00,,CLR,0.10,VWS V14.01,2013-02-11 18:56:00,
2013-02-11 14:01:00,55.4,52.5,30.04,South,177,1.0,3.0,90,0.00,,CLR,0.10,VWS V14.01,2013-02-11 19:01:00,
2013-02-11 14:06:00,55.5,52.6,30.04,SSW,207,0.0,0.0,90,0.00,,CLR,0.10,VWS V14.01,2013-02-11 19:06:00,
2013-02-11 14:11:00,55.6,52.7,30.03,South,190,1.0,1.0,90,0.00,,CLR,0.10,VWS V14.01,2013-02-11 19:11:00,
2013-02-11 14:16:00,55.6,52.7,30.03,South,188,0.0,1.0,90,0.00,,CLR,0.10,VWS V14.01,2013-02-11 19:16:00,
2013-02-11 14:21:00,55.7,52.8,30.02,SSE,149,0.0,1.0,90,0.00,,CLR,0.10,VWS V14.01,2013-02-11 19:21:00,
2013-02-11 14:26:00,56.0,53.1,30.01,SW,235,0.0,1.0,90,0.00,,CLR,0.10,VWS V14.01,2013-02-11 19:26:00,
2013-02-11 14:31:00,56.2,53.3,30.02,ESE,108,1.0,1.0,90,0.00,,CLR,0.10,VWS V14.01,2013-02-11 19:31:00,
2013-02-11 14:36:00,56.3,53.1,30.01,SW,221,1.0,2.0,89,0.00,,CLR,0.10,VWS V14.01,2013-02-11 19:36:00,
2013-02-11 14:41:00,56.5,53.3,30.01,SSW,208,1.0,1.0,89,0.00,,CLR,0.10,VWS V14.01,2013-02-11 19:41:00,
2013-02-11 14:46:00,56.6,53.4,30.01,NNE,27,1.0,1.0,89,0.00,,CLR,0.10,VWS V14.01,2013-02-11 19:46:00,
2013-02-11 14:51:00,56.7,53.5,30.00,SE,141,2.0,2.0,89,0.00,,CLR,0.10,VWS V14.01,2013-02-11 19:51:00,
2013-02-11 14:56:00,56.8,53.6,29.99,SW,233,0.0,1.0,89,0.00,,CLR,0.10,VWS V14.01,2013-02-11 19:56:00,
2013-02-11 15:01:00,56.8,53.6,30.00,SE,127,1.0,2.0,89,0.00,,CLR,0.10,VWS V14.01,2013-02-11 20:01:00,
2013-02-11 15:06:00,56.7,53.5,30.00,SE,136,2.0,3.0,89,0.00,,CLR,0.10,VWS V14.01,2013-02-11 20:06:00,
2013-02-11 15:11:00,56.7,53.5,30.00,SW,229,1.0,2.0,89,0.00,,CLR,0.10,VWS V14.01,2013-02-11 20:11:00,
2013-02-11 15:16:00,56.7,53.5,30.00,SSW,193,2.0,3.0,89,0.00,,CLR,0.10,VWS V14.01,2013-02-11 20:16:00,
2013-02-11 15:21:00,56.8,53.6,30.00,South,177,0.0,2.0,89,0.00,,CLR,0.10,VWS V14.01,2013-02-11 20:21:00,
2013-02-11 15:26:00,56.7,53.5,30.00,West,268,0.0,1.0,89,0.00,,CLR,0.10,VWS V14.01,2013-02-11 20:26:00,
2013-02-11 15:31:00,56.8,53.6,30.00,West,264,0.0,1.0,89,0.00,,CLR,0.10,VWS V14.01,2013-02-11 20:31:00,
2013-02-11 15:36:00,57.0,53.8,30.00,West,264,0.0,1.0,89,0.00,,CLR,0.10,VWS V14.01,2013-02-11 20:36:00,
2013-02-11 15:41:00,57.1,53.9,29.99,SE,141,1.0,2.0,89,0.00,,CLR,0.10,VWS V14.01,2013-02-11 20:41:00,
2013-02-11 15:46:00,57.1,53.9,30.00,SSE,153,0.0,1.0,89,0.00,,CLR,0.10,VWS V14.01,2013-02-11 20:46:00,
2013-02-11 15:51:00,57.1,53.9,30.00,SE,145,1.0,1.0,89,0.00,,CLR,0.10,VWS V14.01,2013-02-11 20:51:00,
2013-02-11 15:56:00,57.1,53.9,30.00,SSE,150,0.0,0.0,89,0.00,,CLR,0.10,VWS V14.01,2013-02-11 20:56:00,
2013-02-11 16:01:00,57.1,53.9,30.01,West,280,1.0,1.0,89,0.00,,CLR,0.10,VWS V14.01,2013-02-11 21:01:00,
2013-02-11 16:06:00,57.2,54.0,30.01,West,278,0.0,1.0,89,0.00,,CLR,0.10,VWS V14.01,2013-02-11 21:06:00,
2013-02-11 16:11:00,57.3,54.1,30.01,SSW,201,1.0,1.0,89,0.00,,CLR,0.10,VWS V14.01,2013-02-11 21:11:00,
2013-02-11 16:16:00,57.4,54.2,30.01,SSW,198,0.0,0.0,89,0.00,,CLR,0.10,VWS V14.01,2013-02-11 21:16:00,
2013-02-11 16:21:00,57.4,54.2,30.01,SW,226,0.0,0.0,89,0.00,,CLR,0.10,VWS V14.01,2013-02-11 21:21:00,
2013-02-11 16:26:00,57.5,54.3,30.00,SW,226,0.0,0.0,89,0.00,,CLR,0.10,VWS V14.01,2013-02-11 21:26:00,
2013-02-11 16:31:00,57.5,54.3,30.01,SW,226,0.0,1.0,89,0.00,,CLR,0.10,VWS V14.01,2013-02-11 21:31:00,
2013-02-11 16:36:00,57.6,54.4,30.01,SW,226,0.0,0.0,89,0.00,,CLR,0.10,VWS V14.01,2013-02-11 21:36:00,
2013-02-11 16:41:00,57.7,54.5,30.00,SW,226,0.0,0.0,89,0.00,,CLR,0.10,VWS V14.01,2013-02-11 21:41:00,
2013-02-11 16:46:00,57.8,54.6,30.00,SW,226,0.0,0.0,89,0.00,,CLR,0.10,VWS V14.01,2013-02-11 21:46:00,
2013-02-11 16:51:00,57.8,54.6,30.00,SW,226,0.0,0.0,89,0.00,,CLR,0.10,VWS V14.01,2013-02-11 21:51:00,
2013-02-11 16:56:00,57.7,54.5,30.01,SW,226,0.0,0.0,89,0.00,,CLR,0.10,VWS V14.01,2013-02-11 21:56:00,
2013-02-11 17:01:00,57.6,54.4,30.00,SW,226,0.0,0.0,89,0.00,,CLR,0.10,VWS V14.01,2013-02-11 22:01:00,
2013-02-11 17:06:00,57.5,54.3,30.00,SSW,210,1.0,1.0,89,0.00,,CLR,0.10,VWS V14.01,2013-02-11 22:06:00,
2013-02-11 17:11:00,57.4,54.2,30.00,South,174,0.0,0.0,89,0.00,,CLR,0.10,VWS V14.01,2013-02-11 22:11:00,
2013-02-11 17:16:00,57.4,54.2,30.00,SW,225,1.0,1.0,89,0.00,,CLR,0.10,VWS V14.01,2013-02-11 22:16:00,
2013-02-11 17:21:00,57.2,54.0,30.00,SSW,203,1.0,1.0,89,0.00,,CLR,0.10,VWS V14.01,2013-02-11 22:21:00,
2013-02-11 17:26:00,57.1,53.9,30.00,SSW,203,1.0,3.0,89,0.00,,CLR,0.10,VWS V14.01,2013-02-11 22:26:00,
2013-02-11 17:31:00,57.0,53.8,30.00,South,191,0.0,0.0,89,0.00,,CLR,0.10,VWS V14.01,2013-02-11 22:31:00,
2013-02-11 17:36:00,56.7,53.5,30.00,SSE,152,1.0,1.0,89,0.00,,CLR,0.10,VWS V14.01,2013-02-11 22:36:00,
2013-02-11 17:41:00,56.7,53.2,30.01,WSW,248,0.0,1.0,88,0.00,,CLR,0.10,VWS V14.01,2013-02-11 22:41:00,
2013-02-11 17:46:00,56.8,53.3,30.01,SW,214,1.0,1.0,88,0.00,,CLR,0.10,VWS V14.01,2013-02-11 22:46:00,
2013-02-11 17:51:00,56.6,52.8,30.01,SSW,212,2.0,2.0,87,0.00,,CLR,0.10,VWS V14.01,2013-02-11 22:51:00,
2013-02-11 17:56:00,56.6,52.2,30.01,South,186,0.0,1.0,85,0.00,,CLR,0.10,VWS V14.01,2013-02-11 22:56:00,
2013-02-11 18:01:00,56.5,51.1,30.01,SW,226,2.0,2.0,82,0.00,,CLR,0.10,VWS V14.01,2013-02-11 23:01:00,
2013-02-11 18:06:00,56.7,48.5,30.00,West,262,2.0,4.0,74,0.00,,CLR,0.10,VWS V14.01,2013-02-11 23:06:00,
2013-02-11 18:11:00,57.0,45.4,30.00,South,191,0.0,1.0,65,0.00,,CLR,0.10,VWS V14.01,2013-02-11 23:11:00,
2013-02-11 18:16:00,56.9,44.0,30.01,WSW,239,0.0,1.0,62,0.00,,CLR,0.10,VWS V14.01,2013-02-11 23:16:00,
2013-02-11 18:21:00,56.8,43.1,30.00,NNE,12,0.0,1.0,60,0.00,,CLR,0.10,VWS V14.01,2013-02-11 23:21:00,
2013-02-11 18:26:00,56.5,41.9,30.01,NW,319,0.0,1.0,58,0.00,,CLR,0.10,VWS V14.01,2013-02-11 23:26:00,
2013-02-11 18:31:00,56.2,44.2,30.02,WNW,290,0.0,0.0,64,0.00,,CLR,0.10,VWS V14.01,2013-02-11 23:31:00,
2013-02-11 18:36:00,55.9,40.9,30.02,ESE,107,1.0,1.0,57,0.00,,CLR,0.10,VWS V14.01,2013-02-11 23:36:00,
2013-02-11 18:41:00,55.8,38.5,30.01,West,259,0.0,1.0,52,0.00,,CLR,0.10,VWS V14.01,2013-02-11 23:41:00,
2013-02-11 18:46:00,55.7,38.4,30.02,SW,215,1.0,1.0,52,0.00,,CLR,0.10,VWS V14.01,2013-02-11 23:46:00,
2013-02-11 18:51:00,55.8,36.9,30.03,WNW,295,4.0,4.0,49,0.00,,CLR,0.10,VWS V14.01,2013-02-11 23:51:00,
2013-02-11 18:56:00,55.7,37.4,30.02,South,179,1.0,2.0,50,0.00,,CLR,0.10,VWS V14.01,2013-02-11 23:56:00,
2013-02-11 19:01:00,55.5,37.2,30.02,SSE,150,1.0,1.0,50,0.00,,CLR,0.10,VWS V14.01,2013-02-12 00:01:00,
2013-02-11 19:06:00,55.3,36.5,30.01,South,183,0.0,2.0,49,0.00,,CLR,0.10,VWS V14.01,2013-02-12 00:06:00,
2013-02-11 19:11:00,54.9,37.6,30.02,South,190,2.0,2.0,52,0.00,,CLR,0.10,VWS V14.01,2013-02-12 00:11:00,
2013-02-11 19:16:00,54.4,36.7,30.02,SSW,207,1.0,3.0,51,0.00,,CLR,0.10,VWS V14.01,2013-02-12 00:16:00,
2013-02-11 19:21:00,54.4,36.2,30.02,ESE,122,1.0,3.0,50,0.00,,CLR,0.10,VWS V14.01,2013-02-12 00:21:00,
2013-02-11 19:26:00,54.2,37.0,30.03,SSE,156,1.0,1.0,52,0.00,,CLR,0.10,VWS V14.01,2013-02-12 00:26:00,
2013-02-11 19:31:00,53.7,39.3,30.03,South,184,0.0,0.0,58,0.00,,CLR,0.10,VWS V14.01,2013-02-12 00:31:00,
2013-02-11 19:36:00,52.5,38.6,30.03,South,185,1.0,1.0,59,0.00,,CLR,0.10,VWS V14.01,2013-02-12 00:36:00,
2013-02-11 19:41:00,51.4,38.8,30.03,ENE,70,0.0,1.0,62,0.00,,CLR,0.10,VWS V14.01,2013-02-12 00:41:00,
2013-02-11 19:46:00,50.4,39.9,30.04,ENE,70,0.0,1.0,67,0.00,,CLR,0.10,VWS V14.01,2013-02-12 00:46:00,
2013-02-11 19:51:00,49.5,39.8,30.04,ENE,70,1.0,1.0,69,0.00,,CLR,0.10,VWS V14.01,2013-02-12 00:51:00,
2013-02-11 19:56:00,48.8,40.2,30.04,ENE,70,0.0,0.0,72,0.00,,CLR,0.10,VWS V14.01,2013-02-12 00:56:00,
2013-02-11 20:01:00,48.1,41.6,30.04,ENE,70,0.0,0.0,78,0.00,,CLR,0.10,VWS V14.01,2013-02-12 01:01:00,
2013-02-11 20:06:00,47.3,41.1,30.04,ENE,70,0.0,0.0,79,0.00,,CLR,0.10,VWS V14.01,2013-02-12 01:06:00,
2013-02-11 20:11:00,46.9,41.1,30.04,ENE,68,0.0,0.0,80,0.00,,CLR,0.10,VWS V14.01,2013-02-12 01:11:00,
2013-02-11 20:16:00,46.5,40.7,30.04,ENE,70,0.0,0.0,80,0.00,,CLR,0.10,VWS V14.01,2013-02-12 01:16:00,
2013-02-11 20:21:00,46.0,40.5,30.04,ENE,70,0.0,1.0,81,0.00,,CLR,0.10,VWS V14.01,2013-02-12 01:21:00,
2013-02-11 20:26:00,45.6,40.4,30.03,ENE,69,0.0,0.0,82,0.00,,CLR,0.10,VWS V14.01,2013-02-12 01:26:00,
2013-02-11 20:31:00,45.1,40.2,30.03,ENE,68,0.0,0.0,83,0.00,,CLR,0.10,VWS V14.01,2013-02-12 01:31:00,
2013-02-11 20:36:00,44.7,40.2,30.03,ENE,68,0.0,0.0,84,0.00,,CLR,0.10,VWS V14.01,2013-02-12 01:36:00,
2013-02-11 20:41:00,44.2,39.4,30.02,ENE,69,0.0,0.0,83,0.00,,CLR,0.10,VWS V14.01,2013-02-12 01:41:00,
2013-02-11 20:46:00,44.0,38.9,30.02,ENE,71,0.0,1.0,82,0.00,,CLR,0.10,VWS V14.01,2013-02-12 01:46:00,
2013-02-11 20:51:00,44.8,37.7,30.02,SSE,148,0.0,0.0,76,0.00,,CLR,0.10,VWS V14.01,2013-02-12 01:51:00,
2013-02-11 20:56:00,46.4,36.8,30.02,South,172,1.0,2.0,69,0.00,,CLR,0.10,VWS V14.01,2013-02-12 01:56:00,
2013-02-11 21:01:00,48.6,35.4,30.02,SSW,205,2.0,4.0,60,0.00,,CLR,0.10,VWS V14.01,2013-02-12 02:01:00,
2013-02-11 21:06:00,49.9,35.3,30.03,South,181,0.0,1.0,57,0.00,,CLR,0.10,VWS V14.01,2013-02-12 02:06:00,
2013-02-11 21:11:00,50.3,35.2,30.02,WNW,285,2.0,2.0,56,0.00,,CLR,0.10,VWS V14.01,2013-02-12 02:11:00,
2013-02-11 21:16:00,50.3,38.2,30.03,ESE,120,1.0,1.0,63,0.00,,CLR,0.10,VWS V14.01,2013-02-12 02:16:00,
2013-02-11 21:21:00,49.2,38.0,30.03,East,82,0.0,1.0,65,0.00,,CLR,0.10,VWS V14.01,2013-02-12 02:21:00,
2013-02-11 21:26:00,48.2,37.8,30.03,East,82,0.0,0.0,67,0.00,,CLR,0.10,VWS V14.01,2013-02-12 02:26:00,
2013-02-11 21:31:00,47.3,38.4,30.03,East,82,0.0,1.0,71,0.00,,CLR,0.10,VWS V14.01,2013-02-12 02:31:00,
2013-02-11 21:36:00,46.5,37.6,30.03,East,82,0.0,1.0,71,0.00,,CLR,0.10,VWS V14.01,2013-02-12 02:36:00,
2013-02-11 21:41:00,45.8,37.7,30.03,East,82,0.0,0.0,73,0.00,,CLR,0.10,VWS V14.01,2013-02-12 02:41:00,
2013-02-11 21:46:00,45.2,37.8,30.03,East,80,0.0,1.0,75,0.00,,CLR,0.10,VWS V14.01,2013-02-12 02:46:00,
2013-02-11 21:51:00,44.7,37.9,30.03,East,82,0.0,1.0,77,0.00,,CLR,0.10,VWS V14.01,2013-02-12 02:51:00,
2013-02-11 21:56:00,44.2,38.1,30.03,East,82,1.0,1.0,79,0.00,,CLR,0.10,VWS V14.01,2013-02-12 02:56:00,
2013-02-11 22:01:00,43.9,38.1,30.03,East,82,0.0,1.0,80,0.00,,CLR,0.10,VWS V14.01,2013-02-12 03:01:00,
2013-02-11 22:06:00,43.5,37.8,30.03,East,82,0.0,0.0,80,0.00,,CLR,0.10,VWS V14.01,2013-02-12 03:06:00,
2013-02-11 22:11:00,43.3,37.6,30.04,East,82,0.0,0.0,80,0.00,,CLR,0.10,VWS V14.01,2013-02-12 03:11:00,
2013-02-11 22:16:00,42.9,37.5,30.04,East,80,0.0,0.0,81,0.00,,CLR,0.10,VWS V14.01,2013-02-12 03:16:00,
2013-02-11 22:21:00,42.7,37.6,30.04,East,80,0.0,1.0,82,0.00,,CLR,0.10,VWS V14.01,2013-02-12 03:21:00,
2013-02-11 22:26:00,42.4,37.6,30.04,East,80,0.0,1.0,83,0.00,,CLR,0.10,VWS V14.01,2013-02-12 03:26:00,
2013-02-11 22:31:00,42.3,37.5,30.04,East,80,0.0,1.0,83,0.00,,CLR,0.10,VWS V14.01,2013-02-12 03:31:00,
2013-02-11 22:36:00,42.2,37.4,30.04,East,80,0.0,0.0,83,0.00,,CLR,0.10,VWS V14.01,2013-02-12 03:36:00,
2013-02-11 22:41:00,42.0,37.5,30.04,East,80,0.0,0.0,84,0.00,,CLR,0.10,VWS V14.01,2013-02-12 03:41:00,
2013-02-11 22:46:00,41.8,37.6,30.04,East,82,0.0,0.0,85,0.00,,CLR,0.10,VWS V14.01,2013-02-12 03:46:00,
2013-02-11 22:51:00,41.6,37.4,30.04,East,80,0.0,1.0,85,0.00,,CLR,0.10,VWS V14.01,2013-02-12 03:51:00,
2013-02-11 22:56:00,41.5,37.3,30.04,East,80,0.0,0.0,85,0.00,,CLR,0.10,VWS V14.01,2013-02-12 03:56:00,
2013-02-11 23:01:00,41.6,37.4,30.04,WNW,295,0.0,1.0,85,0.00,,CLR,0.10,VWS V14.01,2013-02-12 04:01:00,
2013-02-11 23:06:00,41.5,37.3,30.03,WNW,295,0.0,0.0,85,0.00,,CLR,0.10,VWS V14.01,2013-02-12 04:06:00,
2013-02-11 23:11:00,41.3,37.4,30.03,WNW,295,0.0,0.0,86,0.00,,CLR,0.10,VWS V14.01,2013-02-12 04:11:00,
2013-02-11 23:16:00,41.1,37.2,30.03,WNW,295,0.0,0.0,86,0.00,,CLR,0.10,VWS V14.01,2013-02-12 04:16:00,
2013-02-11 23:21:00,40.9,37.0,30.03,WNW,295,0.0,0.0,86,0.00,,CLR,0.10,VWS V14.01,2013-02-12 04:21:00,
2013-02-11 23:26:00,40.9,37.0,30.03,WNW,295,0.0,0.0,86,0.00,,CLR,0.10,VWS V14.01,2013-02-12 04:26:00,
2013-02-11 23:31:00,41.4,36.9,30.02,SSW,203,0.0,0.0,84,0.00,,CLR,0.10,VWS V14.01,2013-02-12 04:31:00,
2013-02-11 23:36:00,42.3,37.2,30.01,SSW,203,0.0,0.0,82,0.00,,CLR,0.10,VWS V14.01,2013-02-12 04:36:00,
2013-02-11 23:41:00,42.5,37.7,30.01,SSW,203,0.0,0.0,83,0.00,,CLR,0.10,VWS V14.01,2013-02-12 04:41:00,
2013-02-11 23:46:00,42.2,38.0,30.00,SSW,203,0.0,0.0,85,0.00,,CLR,0.10,VWS V14.01,2013-02-12 04:46:00,
2013-02-11 23:51:00,42.1,37.6,30.01,SSW,203,0.0,1.0,84,0.00,,CLR,0.10,VWS V14.01,2013-02-12 04:51:00,
2013-02-11 23:56:00,41.9,37.4,30.01,SSW,203,0.0,0.0,84,0.00,,CLR,0.10,VWS V14.01,2013-02-12 04:56:00,